FW1036 Weather Reports


time (UTC)temp
C
wind
direction
speed
KPH
gust
KPH
rain 1hr
cm
rain 24hr
cm
rain mn
cm
humidity
%
barometer
mb
20240222114554 0 22 6.4 9.7 0.00 0.00 0.00 83 1007.5
20240222113030 0 5 6.4 9.7 0.00 0.00 0.00 83 1007.7
20240222111529 0 5 4.8 9.7 0.00 0.00 0.00 83 1007.7
20240222110028 0 5 4.8 8.0 0.00 0.00 0.00 83 1007.9
20240222104527 0 5 6.4 9.7 0.00 0.00 0.00 82 1008.0
20240222103030 0 5 4.8 6.4 0.00 0.00 0.00 83 1007.9
20240222101533 0 5 6.4 9.7 0.00 0.00 0.00 81 1007.9
20240222100019 1 5 6.4 12.9 0.00 0.00 0.00 80 1008.0
20240222094517 2 20 9.7 14.5 0.00 0.00 0.00 83 1007.9
20240222093024 2 298 3.2 6.4 0.00 0.00 0.00 83 1007.9
20240222091509 2 298 0.0 0.0 0.00 0.00 0.00 82 1008.1
20240222090012 3 298 0.0 0.0 0.00 0.00 0.00 82 1007.9
20240222084504 3 298 0.0 3.2 0.00 0.00 0.00 82 1007.8
20240222083009 3 298 0.0 6.4 0.00 0.00 0.00 81 1007.8
20240222081612 3 227 0.0 0.0 0.00 0.00 0.00 81 1008.0
20240222080059 3 227 0.0 3.2 0.00 0.00 0.00 80 1008.2
20240222074557 3 227 0.0 3.2 0.00 0.00 0.00 80 1008.3
20240222073055 3 227 0.0 4.8 0.00 0.00 0.00 78 1008.6
20240222071553 4 199 0.0 0.0 0.00 0.00 0.00 78 1008.7
20240222070051 3 199 0.0 0.0 0.00 0.00 0.00 79 1008.6
20240222064554 3 199 0.0 4.8 0.00 0.00 0.00 79 1008.6
20240222063048 3 199 0.0 0.0 0.00 0.00 0.00 79 1008.7
20240222061545 3 199 0.0 0.0 0.00 0.00 0.00 77 1008.8
20240222060058 4 199 1.6 4.8 0.00 0.00 0.00 76 1008.7
20240222054540 5 199 1.6 4.8 0.00 0.00 0.00 75 1008.7
20240222053036 5 199 1.6 4.8 0.00 0.00 0.00 74 1008.7
20240222051536 5 232 1.6 6.4 0.00 0.00 0.00 73 1008.8
20240222050029 6 208 1.6 6.4 0.00 0.00 0.00 72 1009.0
20240222044529 6 209 1.6 9.7 0.00 0.00 0.00 71 1009.1
20240222043028 6 209 3.2 8.0 0.00 0.00 0.00 71 1009.3
20240222041527 6 242 3.2 8.0 0.00 0.00 0.00 71 1009.3
20240222040027 6 223 4.8 8.0 0.00 0.00 0.00 71 1009.3
20240222034530 7 233 3.2 11.3 0.00 0.00 0.00 69 1009.4
20240222033027 8 223 4.8 16.1 0.00 0.00 0.00 65 1009.1
20240222031539 8 217 4.8 19.3 0.00 0.00 0.00 65 1008.9
20240222030025 8 196 8.0 17.7 0.00 0.00 0.00 65 1009.0
20240222024522 8 184 6.4 17.7 0.00 0.00 0.00 65 1009.2
20240222023022 8 175 9.7 24.1 0.00 0.00 0.00 65 1009.2
20240222021521 8 175 14.5 24.1 0.00 0.00 0.00 64 1009.1
20240222020021 8 172 11.3 20.9 0.00 0.00 0.00 64 1009.2
20240222014520 8 190 11.3 24.1 0.00 0.00 0.00 64 1009.4
20240222013018 8 182 9.7 29.0 0.00 0.00 0.00 64 1009.3
20240222011518 8 195 16.1 30.6 0.00 0.00 0.00 63 1009.6
20240222010018 8 185 14.5 30.6 0.00 0.00 0.00 63 1009.9
20240222004515 8 180 14.5 24.1 0.00 0.00 0.00 63 1009.8
20240222003014 8 178 8.0 20.9 0.00 0.00 0.00 64 1010.0
20240222001513 8 182 11.3 27.4 0.00 0.00 0.00 63 1010.1
20240222000020 8 179 11.3 17.7 0.00 0.00 0.00 63 1010.2
20240221234512 8 169 11.3 20.9 0.00 0.00 0.00 63 1010.1
20240221233013 8 154 11.3 19.3 0.00 0.00 0.00 62 1010.1
20240221231508 8 180 12.9 19.3 0.00 0.00 0.00 62 1010.2
20240221230013 8 198 8.0 14.5 0.00 0.00 0.00 62 1010.3
20240221224505 8 169 9.7 16.1 0.00 0.00 0.00 61 1010.4
20240221223010 9 172 11.3 20.9 0.00 0.00 0.00 60 1010.5
20240221221502 10 174 14.5 22.5 0.00 0.00 0.00 59 1010.7
20240221220001 10 171 8.0 19.3 0.00 0.00 0.00 60 1010.7
20240221214606 10 166 9.7 17.7 0.00 0.00 0.00 59 1011.0
20240221213102 11 161 12.9 22.5 0.00 0.00 0.00 59 1011.0
20240221211604 11 170 12.9 27.4 0.00 0.00 0.00 59 1011.1
20240221210056 11 148 9.7 16.1 0.00 0.00 0.00 59 1011.4
20240221204553 10 174 6.4 22.5 0.00 0.00 0.00 59 1011.8
20240221203051 10 185 8.0 16.1 0.00 0.00 0.00 58 1011.9
20240221201550 10 182 4.8 16.1 0.00 0.00 0.00 58 1012.1
20240221200054 11 195 8.0 17.7 0.00 0.00 0.00 56 1012.3
20240221194548 11 196 3.2 27.4 0.00 0.00 0.00 56 1012.4
20240221193054 11 211 11.3 24.1 0.00 0.00 0.00 55 1012.4
20240221191544 11 183 6.4 30.6 0.00 0.00 0.00 56 1012.6
20240221190045 11 180 12.9 22.5 0.00 0.00 0.00 55 1012.8
20240221184539 11 167 9.7 25.7 0.00 0.00 0.00 57 1013.1
20240221183045 11 215 16.1 29.0 0.00 0.00 0.00 54 1013.5
20240221181540 10 183 6.4 27.4 0.00 0.00 0.00 57 1014.0
20240221180029 9 182 16.1 22.5 0.00 0.00 0.00 59 1014.5
20240221174526 8 187 6.4 17.7 0.00 0.00 0.00 59 1015.0
20240221173023 8 203 8.0 17.7 0.00 0.00 0.00 59 1015.5
20240221171523 8 238 6.4 19.3 0.00 0.00 0.00 57 1015.5
20240221170034 9 234 9.7 17.7 0.00 0.00 0.00 57 1015.6
20240221164519 8 181 9.7 20.9 0.00 0.00 0.00 58 1015.8
20240221163015 8 216 8.0 29.0 0.00 0.00 0.00 57 1016.0
20240221161536 7 213 9.7 22.5 0.00 0.00 0.00 59 1016.0
20240221160007 7 179 8.0 20.9 0.00 0.00 0.00 60 1016.4
20240221154505 6 171 8.0 14.5 0.00 0.00 0.00 61 1016.6
20240221153104 5 182 4.8 19.3 0.00 0.00 0.00 63 1016.9
20240221151601 5 190 4.8 17.7 0.00 0.00 0.00 65 1017.2
20240221150103 5 190 6.4 16.1 0.00 0.00 0.00 65 1017.3
20240221144606 3 190 6.4 17.7 0.00 0.00 0.00 68 1017.5
20240221143046 3 193 3.2 19.3 0.00 0.00 0.00 69 1017.7
20240221141543 3 196 4.8 17.7 0.00 0.00 0.00 70 1017.7
20240221140040 2 225 4.8 16.1 0.00 0.00 0.00 70 1018.0
20240221134536 2 233 6.4 12.9 0.00 0.00 0.00 71 1017.8
20240221133032 2 210 4.8 12.9 0.00 0.00 0.00 71 1017.9
20240221131528 1 205 4.8 16.1 0.00 0.00 0.00 72 1018.0
20240221130032 1 177 6.4 17.7 0.00 0.00 0.00 73 1018.1
20240221124521 1 159 6.4 16.1 0.00 0.00 0.00 75 1018.2
20240221123037 0 177 8.0 17.7 0.00 0.00 0.00 75 1018.2
20240221121518 0 196 9.7 19.3 0.00 0.00 0.00 76 1018.3
20240221120014 0 161 9.7 24.1 0.00 0.00 0.00 76 1018.5